Wind_Speed
18 18 17 18 20 17 18 19 19 18 17 16 15 15 14 13 12 11 10 9 8 7 6 5 5 6 6 7 7 8 8 8 9 9 8 8 8 8 7 7 7 6 7 6 6 5 6 5 5
18 18 18 19 18 17 18 19 20 19 18 18 16 15 14 13 12 11 10 9 8 7 5 4 4 4 5 6 7 8 8 8 8 8 8 7 7 7 7 8 8 7 7 7 6 6 6 5 5
18 18 18 18 17 18 19 20 20 20 19 19 18 17 15 13 12 11 10 9 8 6 5 4 3 4 4 5 6 7 7 8 8 8 7 7 7 7 7 8 8 8 7 7 6 6 6 6 5
18 18 18 17 17 19 20 21 21 22 21 20 20 19 17 15 13 11 10 9 8 6 5 4 3 3 4 4 5 6 6 7 7 7 7 7 7 7 8 8 7 7 7 7 7 7 7 6 6
16 18 16 16 18 19 20 21 22 22 22 21 20 19 17 16 14 12 10 9 7 6 5 4 3 3 3 4 4 5 5 6 7 7 7 7 7 8 7 7 7 7 7 6 6 6 6 6 6
16 16 14 16 18 19 20 21 22 23 22 22 21 19 18 16 15 13 11 9 7 6 4 3 3 2 3 3 4 5 5 5 6 7 7 7 7 7 7 7 7 6 6 6 6 6 6 6 5
16 14 14 15 17 18 19 20 21 22 21 21 20 19 18 17 15 13 12 10 8 6 5 4 3 2 2 3 3 4 5 5 6 6 6 7 7 6 6 6 6 5 6 6 7 6 6 6 6
15 14 13 14 15 16 18 19 20 20 20 20 19 18 17 16 15 14 12 11 9 7 6 4 3 2 2 3 3 4 4 5 5 5 6 6 6 6 6 6 6 6 7 7 7 6 6 6 7
15 13 12 14 14 15 17 18 18 19 19 19 19 18 17 15 14 14 13 11 10 8 6 5 4 2 1 2 3 3 4 4 5 5 5 5 6 6 6 7 7 7 7 7 7 7 7 6 7
13 11 12 13 14 14 16 17 18 18 19 19 18 18 17 15 14 13 12 11 10 9 8 6 4 3 1 1 2 3 4 4 4 4 4 5 6 6 6 6 7 7 7 7 7 7 7 7 7
11 10 11 12 13 13 14 16 17 18 18 18 17 17 17 16 14 13 11 10 9 8 8 7 6 4 1 1 2 3 3 3 3 3 4 4 5 5 6 6 7 6 7 7 7 7 7 7 6
9 10 10 11 12 13 14 15 16 17 17 17 17 17 17 16 15 13 11 10 9 8 7 7 5 4 1 1 2 3 3 3 4 3 3 4 4 5 5 5 5 6 6 6 6 6 6 6 6
7 9 10 10 11 12 12 14 14 15 16 16 16 16 17 16 15 13 11 10 10 9 8 7 5 3 1 1 1 2 3 3 3 3 3 3 4 4 5 5 5 6 6 6 6 6 5 5 5
6 7 8 9 10 10 11 12 13 14 14 15 15 15 16 16 15 15 12 11 10 9 8 7 6 4 2 1 2 2 3 3 3 3 3 4 4 5 5 5 5 5 5 5 5 5 5 4 4
5 6 6 7 8 9 10 11 12 12 13 14 15 15 15 15 16 16 14 12 10 9 8 8 7 5 3 1 1 2 3 3 3 3 4 4 4 5 5 6 5 5 4 4 4 4 3 3 2
3 4 4 5 7 7 9 9 10 11 13 14 14 15 15 15 15 16 15 13 11 9 8 8 8 6 4 2 1 3 3 4 3 4 4 4 4 5 5 6 5 5 5 4 4 3 3 2 2
1 2 1 3 5 7 8 8 10 11 12 13 14 15 15 14 15 16 16 14 12 10 9 9 8 6 5 3 2 2 3 4 4 4 5 5 5 5 5 6 6 5 5 4 3 3 2 2 2
3 1 1 2 4 6 7 8 9 10 11 12 13 14 14 14 15 15 16 15 13 12 10 10 9 7 6 4 2 1 2 3 4 4 5 5 5 5 5 6 6 6 5 5 4 3 3 3 3
5 3 1 1 3 5 6 6 8 9 10 11 12 13 14 14 15 15 15 15 13 12 11 11 10 8 7 5 3 1 2 4 4 4 5 5 6 6 6 6 6 7 6 5 5 5 4 4 4
5 3 3 2 2 3 5 6 8 9 10 11 11 12 13 13 14 14 15 15 14 13 12 11 11 10 7 5 3 2 2 4 4 4 5 6 6 6 6 7 7 7 7 7 6 6 5 5 5
7 5 4 3 2 3 5 6 7 9 10 10 11 12 12 13 14 14 15 15 14 14 13 11 11 10 8 5 3 3 2 3 4 4 5 6 6 6 6 7 7 8 8 8 7 7 6 6 6
8 7 5 4 3 4 4 5 7 8 9 10 11 11 12 13 14 14 15 15 14 14 14 11 10 9 8 6 4 3 2 2 3 4 5 6 6 6 6 7 7 8 8 9 9 8 8 8 8
10 7 6 5 4 4 4 3 7 8 9 10 11 11 12 13 14 14 15 14 14 14 13 11 9 8 8 7 5 3 1 2 2 3 5 6 7 7 7 7 7 8 8 9 9 9 9 9 9
11 9 7 6 5 6 5 3 6 8 9 9 10 11 12 13 14 15 15 14 14 14 12 10 8 8 7 6 5 4 3 3 3 4 5 5 6 7 7 7 7 8 8 9 10 11 11 11 11
12 10 8 7 6 7 6 5 6 8 8 9 10 12 12 13 14 15 15 15 15 13 12 9 8 7 7 6 6 5 4 4 4 5 5 6 7 8 8 9 9 9 9 10 11 12 12 13 13
13 12 10 8 8 8 8 6 7 8 8 9 10 12 13 13 14 15 15 15 15 13 11 9 7 7 6 6 6 6 5 5 5 6 6 7 7 8 9 10 10 10 11 12 12 12 13 14 14
15 14 12 11 9 8 9 9 9 9 9 10 11 12 12 12 13 14 14 15 14 12 10 9 8 8 7 6 6 6 6 6 6 7 7 7 8 9 10 10 11 11 12 13 14 14 14 15 15
17 15 14 12 10 9 10 9 9 10 10 11 11 12 12 12 13 14 14 15 14 12 11 10 9 8 8 7 7 7 7 7 7 7 7 8 9 10 10 11 11 11 12 13 14 15 15 15 15
19 18 16 13 12 9 9 11 11 11 11 11 11 11 12 12 14 14 15 14 14 13 12 12 11 11 10 8 8 7 7 8 8 8 8 9 10 10 11 11 11 12 12 13 13 14 15 16 16
21 19 17 15 14 11 9 12 12 12 12 12 11 12 12 13 14 14 15 15 15 14 13 13 12 12 10 9 9 8 9 9 10 10 10 10 11 11 12 12 12 12 13 14 14 15 15 16 17
Wind_Direction
70 69 70 73 72 72 73 71 70 69 68 69 70 71 71 72 74 77 78 79 80 82 86 89 94 102 108 111 114 117 115 112 108 106 105 101 100 102 102 97 93 94 95 96 96 98 100 106 105
70 68 69 73 76 72 70 70 68 66 65 64 64 64 64 65 67 70 73 75 77 77 79 86 94 104 109 109 113 118 117 114 111 111 110 105 103 106 103 98 94 94 94 91 90 94 99 105 112
71 68 70 73 76 74 71 69 67 65 62 61 60 59 58 59 61 62 67 70 71 71 71 77 89 103 110 111 112 116 116 114 113 113 113 108 104 105 104 97 95 95 96 94 90 90 94 102 110
73 72 70 73 72 72 69 66 66 63 59 58 57 55 55 55 55 56 59 64 65 65 66 74 87 101 107 109 112 116 116 116 113 113 115 113 110 107 103 97 95 96 95 94 93 92 90 92 98
74 72 71 72 71 70 68 65 64 61 57 56 55 53 51 52 52 52 53 55 58 60 61 67 82 100 107 110 114 118 116 115 115 117 119 117 115 112 106 100 100 100 96 95 94 86 88 89 93
73 75 76 73 70 68 67 64 62 60 56 54 53 51 49 49 48 49 50 51 51 53 53 59 67 91 109 116 119 122 118 118 119 118 124 120 113 109 107 101 102 101 98 94 90 89 89 94 94
80 81 76 74 72 67 64 61 59 57 53 50 50 49 48 48 48 48 48 48 49 49 45 47 54 62 115 125 125 126 126 126 124 121 120 120 117 113 110 109 109 106 103 98 92 88 94 97 97
77 74 70 71 71 66 63 60 57 54 51 47 45 45 45 47 47 45 45 45 45 45 42 39 37 56 112 129 128 129 132 133 130 126 123 120 119 118 112 113 112 106 103 103 96 93 97 97 98
74 75 72 71 69 65 61 58 54 51 48 44 41 41 40 43 44 42 41 41 40 40 37 31 28 38 99 126 133 137 141 141 137 131 129 126 123 123 117 112 109 105 105 105 98 96 99 99 100
77 78 72 70 68 66 62 57 51 48 44 41 41 40 39 40 40 40 39 37 35 34 30 24 26 25 70 130 146 151 152 148 143 134 129 130 130 127 122 116 108 106 105 106 102 99 100 101 102
80 79 72 70 69 67 62 55 50 46 42 41 39 37 37 36 36 35 34 32 30 28 25 22 23 17 28 151 161 160 158 162 157 146 131 133 135 130 125 118 111 108 107 109 105 100 101 102 103
84 78 70 68 68 68 63 56 50 45 40 36 34 32 32 30 30 28 26 26 25 24 20 18 16 9 350 170 168 169 166 168 170 161 154 148 146 138 131 127 119 114 112 111 106 103 102 103 106
91 83 72 66 66 65 61 55 49 43 38 33 30 28 27 26 26 22 18 17 17 17 15 14 10 2 355 176 171 173 175 169 178 174 163 166 158 150 141 137 133 126 123 119 113 110 106 105 107
98 84 71 63 62 61 55 50 44 39 34 30 26 24 23 23 21 17 17 14 11 10 11 11 14 18 43 131 168 172 180 176 171 176 170 168 165 159 152 144 143 139 137 131 124 120 115 109 104
97 79 64 59 58 58 52 45 38 32 27 23 22 22 20 20 19 20 21 16 13 11 11 10 12 15 24 19 218 197 190 175 166 174 171 172 172 166 165 160 151 151 152 144 136 132 127 121 115
93 69 48 48 53 51 50 32 28 25 21 17 16 15 16 16 17 18 19 17 12 6 5 5 4 4 357 342 292 208 195 194 191 188 183 184 184 178 171 172 165 164 163 163 160 158 150 145 139
132 87 46 34 48 47 46 31 25 22 17 13 11 10 12 12 12 13 14 13 9 3 1 1 359 355 355 347 314 226 189 195 195 194 194 191 189 184 179 182 182 182 183 184 181 180 182 184 184
203 183 37 17 33 39 38 27 22 18 15 11 8 7 8 9 8 9 10 11 8 5 2 1 359 356 352 351 338 258 207 204 198 196 203 197 196 191 193 196 200 203 204 206 207 211 215 215 219
204 203 238 347 22 31 28 20 15 14 12 8 5 5 3 4 4 6 6 7 6 2 0 358 355 352 351 342 335 291 227 213 209 208 210 204 205 204 207 211 211 213 215 218 221 225 230 236 238
213 218 251 300 3 15 10 5 4 5 5 3 1 359 359 1 1 2 2 3 3 0 355 353 354 356 355 344 316 289 252 223 213 214 215 211 211 213 212 216 219 219 221 223 224 229 236 241 247
219 222 244 270 323 345 353 351 352 356 357 359 358 358 358 359 358 359 357 356 357 357 355 352 354 355 356 352 321 285 269 237 226 228 217 211 217 222 224 228 229 231 232 232 231 234 239 248 256
228 229 239 266 303 311 346 331 333 346 351 353 355 358 358 358 358 356 354 353 352 353 354 350 351 354 356 0 349 316 264 248 236 233 225 223 227 230 234 238 240 240 240 239 239 239 243 249 257
232 237 246 266 284 299 315 325 320 339 341 342 350 355 356 356 357 356 355 353 353 351 350 350 351 353 352 353 356 344 290 252 244 241 233 233 234 239 246 249 247 246 244 243 242 245 249 254 258
233 241 254 268 274 280 289 298 311 327 332 337 344 348 350 353 353 352 354 353 352 350 350 352 352 353 351 350 351 340 311 281 263 255 245 245 244 248 252 253 252 250 249 250 251 254 258 262 264
231 236 251 258 263 265 277 282 296 317 324 331 337 341 343 349 349 349 351 352 349 349 349 351 353 352 350 350 346 334 310 298 282 263 259 254 254 255 257 256 258 257 259 259 259 260 262 264 265
230 231 232 236 251 263 273 275 295 310 313 324 333 336 337 343 347 349 350 351 350 351 349 349 352 347 341 339 336 329 316 298 289 278 268 263 262 263 262 259 262 262 262 263 264 265 266 267 269
231 230 233 238 244 251 263 274 288 301 309 318 327 331 334 339 344 348 349 350 351 350 347 347 347 342 336 332 326 323 316 309 298 285 276 268 265 266 265 264 264 264 264 265 267 267 268 269 270
232 232 234 234 242 248 265 272 278 291 301 310 318 323 329 334 339 343 345 348 349 347 343 339 334 331 331 327 324 321 318 314 311 303 289 278 269 265 265 265 266 266 267 268 266 266 269 274 274
233 235 238 239 241 240 256 268 275 283 291 297 305 314 322 326 332 337 340 342 345 344 339 334 333 328 325 320 314 313 313 312 310 304 294 285 276 272 271 271 269 267 270 272 272 272 272 275 277
233 235 238 241 246 245 243 263 274 278 284 289 296 304 313 317 323 330 334 337 339 340 339 332 329 327 326 320 313 308 308 309 307 298 294 289 282 276 275 273 272 272 274 273 274 276 279 280 280
Height
5916 5915 5915 5915 5916 5916 5913 5911 5910 5908 5907 5905 5904 5903 5903 5902 5903 5904 5901 5899 5899 5899 5898 5898 5898 5898 5897 5897 5896 5896 5896 5896 5896 5895 5895 5895 5895 5895 5895 5895 5895 5895 5895 5895 5895 5895 5895 5896 5896
5918 5918 5918 5918 5919 5918 5916 5914 5912 5910 5909 5907 5906 5905 5904 5903 5903 5902 5900 5900 5900 5900 5899 5899 5899 5899 5898 5898 5898 5897 5897 5897 5897 5896 5896 5896 5896 5896 5896 5896 5896 5896 5896 5896 5896 5896 5896 5896 5897
5921 5921 5922 5922 5921 5920 5918 5916 5914 5912 5910 5909 5908 5906 5906 5904 5903 5903 5902 5901 5901 5900 5900 5900 5899 5899 5899 5899 5899 5898 5898 5898 5897 5897 5897 5897 5897 5897 5897 5897 5897 5897 5897 5897 5897 5897 5897 5897 5897
5924 5925 5926 5926 5924 5922 5920 5918 5916 5914 5912 5911 5909 5908 5907 5905 5905 5904 5903 5902 5902 5901 5901 5900 5900 5900 5900 5899 5899 5899 5898 5898 5898 5898 5898 5898 5898 5898 5898 5898 5898 5898 5898 5898 5898 5898 5898 5898 5898
5927 5928 5930 5928 5926 5924 5922 5920 5918 5916 5914 5912 5911 5910 5908 5907 5906 5905 5904 5903 5902 5902 5901 5901 5900 5900 5900 5900 5900 5899 5899 5899 5899 5899 5899 5899 5899 5899 5899 5899 5899 5899 5899 5899 5899 5899 5899 5899 5899
5931 5932 5934 5931 5929 5926 5924 5922 5920 5918 5916 5915 5913 5912 5910 5908 5907 5906 5905 5904 5903 5902 5902 5901 5901 5901 5900 5900 5900 5900 5900 5900 5900 5899 5900 5899 5899 5900 5900 5900 5900 5900 5900 5900 5900 5900 5900 5900 5900
5935 5936 5935 5933 5931 5929 5927 5925 5922 5920 5919 5917 5915 5913 5912 5910 5909 5907 5906 5905 5904 5903 5902 5902 5901 5901 5901 5901 5901 5900 5900 5900 5900 5900 5900 5900 5900 5900 5901 5901 5901 5901 5901 5901 5900 5901 5901 5901 5901
5936 5939 5937 5935 5933 5931 5929 5927 5925 5923 5921 5919 5917 5915 5914 5912 5910 5909 5907 5906 5905 5904 5903 5902 5902 5901 5901 5901 5901 5901 5901 5901 5901 5901 5901 5901 5901 5901 5901 5901 5902 5902 5902 5901 5902 5902 5902 5902 5902
5938 5942 5939 5937 5935 5933 5931 5929 5927 5925 5923 5921 5919 5917 5915 5913 5912 5910 5909 5907 5906 5905 5904 5903 5902 5902 5901 5901 5901 5901 5901 5901 5901 5901 5901 5902 5902 5902 5902 5902 5902 5902 5902 5902 5903 5903 5903 5903 5903
5941 5943 5940 5938 5936 5935 5933 5931 5929 5927 5925 5923 5921 5919 5917 5915 5913 5911 5910 5908 5907 5906 5905 5903 5903 5902 5901 5901 5901 5901 5901 5901 5902 5902 5902 5902 5902 5902 5902 5902 5903 5903 5903 5904 5904 5904 5904 5904 5904
5942 5942 5941 5939 5938 5936 5935 5933 5931 5929 5927 5925 5923 5920 5918 5916 5914 5913 5911 5909 5908 5907 5905 5904 5903 5902 5901 5901 5901 5901 5901 5901 5902 5902 5902 5902 5902 5903 5903 5903 5903 5904 5904 5904 5905 5905 5905 5905 5905
5943 5943 5942 5941 5939 5938 5937 5935 5933 5931 5930 5927 5924 5922 5920 5918 5916 5914 5912 5911 5909 5907 5906 5904 5903 5902 5901 5901 5901 5901 5901 5901 5902 5902 5902 5903 5903 5903 5903 5904 5904 5904 5905 5905 5905 5906 5906 5906 5906
5945 5944 5943 5942 5941 5940 5938 5937 5935 5933 5931 5928 5926 5924 5921 5919 5917 5915 5913 5911 5909 5908 5906 5904 5903 5902 5901 5901 5901 5901 5901 5901 5902 5902 5902 5903 5903 5903 5904 5904 5905 5905 5905 5906 5906 5907 5907 5907 5907
5945 5945 5944 5943 5943 5941 5940 5938 5937 5935 5932 5930 5928 5925 5923 5920 5918 5915 5913 5911 5910 5908 5906 5905 5903 5901 5901 5900 5901 5901 5901 5901 5901 5902 5902 5902 5903 5903 5904 5905 5905 5905 5906 5906 5907 5907 5907 5908 5908
5946 5946 5946 5945 5944 5943 5942 5940 5938 5936 5934 5931 5929 5926 5924 5921 5919 5916 5914 5912 5910 5908 5906 5905 5903 5902 5901 5900 5900 5900 5901 5901 5901 5902 5902 5902 5903 5903 5904 5905 5905 5906 5906 5907 5907 5907 5908 5908 5908
5947 5947 5948 5946 5945 5944 5944 5943 5940 5938 5935 5933 5930 5928 5925 5922 5920 5917 5915 5912 5910 5908 5906 5905 5903 5902 5901 5900 5899 5900 5900 5900 5901 5901 5902 5902 5903 5903 5904 5905 5905 5906 5906 5907 5907 5908 5908 5908 5908
5947 5949 5948 5947 5945 5944 5944 5943 5941 5938 5936 5934 5931 5929 5926 5924 5921 5918 5915 5913 5910 5908 5906 5905 5903 5902 5901 5900 5899 5899 5899 5900 5900 5900 5901 5902 5902 5903 5904 5904 5905 5906 5906 5907 5907 5908 5908 5908 5908
5948 5948 5947 5947 5946 5945 5944 5943 5941 5939 5937 5935 5932 5930 5927 5924 5921 5919 5916 5913 5910 5908 5906 5905 5903 5901 5900 5899 5899 5898 5898 5899 5899 5900 5900 5901 5902 5902 5903 5904 5904 5905 5906 5906 5907 5907 5907 5907 5908
5946 5947 5947 5946 5945 5945 5944 5943 5942 5939 5937 5935 5933 5930 5927 5925 5922 5919 5916 5913 5911 5908 5906 5904 5903 5901 5900 5899 5898 5898 5898 5898 5899 5899 5900 5900 5901 5902 5902 5903 5904 5904 5905 5905 5906 5906 5906 5907 5907
5944 5946 5946 5945 5945 5945 5944 5943 5941 5939 5937 5935 5933 5930 5928 5925 5922 5920 5917 5914 5911 5908 5906 5904 5902 5900 5899 5898 5898 5898 5897 5898 5898 5898 5899 5899 5900 5901 5901 5902 5903 5903 5904 5904 5905 5905 5906 5906 5906
5943 5944 5945 5945 5945 5944 5944 5943 5942 5940 5937 5935 5933 5930 5928 5925 5923 5920 5917 5914 5911 5908 5906 5903 5902 5900 5899 5898 5897 5897 5897 5897 5897 5897 5898 5898 5899 5900 5900 5901 5901 5902 5902 5903 5903 5904 5904 5905 5905
5941 5942 5943 5943 5944 5945 5944 5946 5942 5939 5938 5935 5933 5930 5928 5925 5923 5920 5917 5914 5911 5908 5906 5903 5901 5900 5898 5897 5896 5896 5896 5896 5896 5897 5897 5897 5898 5899 5899 5900 5900 5900 5901 5902 5902 5902 5902 5903 5903
5939 5940 5941 5942 5943 5944 5943 5944 5943 5939 5937 5935 5933 5930 5928 5925 5923 5920 5917 5914 5911 5908 5906 5903 5901 5900 5898 5897 5896 5896 5896 5895 5895 5896 5896 5896 5897 5897 5898 5898 5898 5899 5899 5900 5900 5900 5901 5901 5901
5937 5939 5940 5940 5942 5943 5942 5943 5941 5939 5937 5935 5933 5930 5928 5925 5923 5920 5917 5913 5911 5908 5905 5903 5901 5900 5898 5897 5896 5896 5895 5895 5895 5895 5895 5895 5895 5896 5896 5896 5896 5897 5897 5898 5898 5898 5898 5899 5899
5935 5938 5940 5941 5942 5942 5940 5940 5940 5937 5936 5934 5932 5930 5927 5925 5922 5919 5916 5913 5910 5907 5905 5903 5901 5900 5898 5897 5896 5895 5895 5894 5894 5894 5894 5894 5894 5894 5894 5894 5894 5895 5895 5895 5895 5895 5895 5896 5896
5932 5936 5939 5941 5942 5941 5938 5938 5938 5936 5934 5933 5931 5929 5927 5924 5922 5919 5916 5913 5909 5907 5904 5902 5901 5899 5898 5897 5896 5895 5894 5893 5893 5892 5892 5892 5892 5892 5892 5892 5892 5892 5892 5892 5892 5892 5892 5892 5892
5929 5932 5935 5937 5937 5938 5937 5936 5935 5934 5933 5931 5930 5928 5926 5924 5921 5918 5915 5912 5909 5906 5904 5902 5900 5898 5897 5896 5895 5894 5893 5892 5891 5891 5890 5890 5890 5890 5890 5889 5889 5889 5889 5889 5889 5889 5888 5888 5888
5926 5928 5930 5933 5934 5936 5935 5934 5934 5932 5931 5930 5928 5927 5925 5923 5920 5917 5915 5912 5909 5906 5903 5901 5899 5898 5896 5895 5894 5893 5892 5891 5890 5889 5888 5888 5888 5887 5887 5886 5886 5886 5886 5885 5885 5885 5885 5884 5884
5922 5925 5927 5929 5931 5933 5934 5935 5930 5929 5929 5928 5926 5925 5924 5922 5919 5917 5914 5911 5909 5906 5903 5900 5899 5897 5895 5894 5893 5892 5891 5890 5889 5887 5887 5886 5885 5885 5884 5884 5883 5883 5882 5882 5882 5882 5881 5881 5880
5918 5920 5923 5926 5926 5928 5931 5933 5927 5926 5926 5925 5924 5923 5922 5920 5918 5916 5913 5910 5908 5905 5902 5900 5897 5896 5894 5892 5891 5890 5889 5888 5887 5886 5885 5884 5883 5882 5881 5881 5880 5880 5879 5879 5878 5878 5877 5877 5876